N4MRV-1 Weather Reports


Display with metric or nautical units.
time (UTC)temp
F
wind
direction
speed
MPH
gust
MPH
rain 1hr
in
rain 24hr
in
rain mn
in
humidity
%
barometer
mb
20260906094517 70 0.0 0.0 0.00 0.62 0.00 95 1012.8
20260906093017 71 0.0 0.0 0.00 0.62 0.00 95 1012.6
20260906091517 71 0.0 0.0 0.00 0.62 0.00 95 1012.6
20260906090017 71 0.0 0.0 0.00 0.62 0.00 95 1012.5
20260906084517 71 0.0 0.0 0.00 0.62 0.00 95 1012.5
20260906083016 71 0.0 0.0 0.00 0.62 0.00 95 1012.4
20260906081517 71 0.0 0.0 0.00 0.62 0.00 95 1012.2
20260906080017 71 0.0 1.0 0.00 0.62 0.00 95 1012.3
20260906074517 72 0.0 1.0 0.00 0.62 0.00 95 1012.1
20260906073016 72 0.0 1.0 0.00 0.62 0.00 95 1012.1
20260906071516 72 0.0 2.0 0.00 0.62 0.00 95 1012.0
20260906070036 72 0.0 1.0 0.00 0.62 0.00 95 1012.0
20260906064516 72 0.0 2.0 0.00 0.62 0.00 95 1012.2
20260906063016 72 0.0 0.0 0.00 0.62 0.00 95 1012.1
20260906061516 72 0.0 0.0 0.00 0.62 0.00 95 1012.2
20260906060016 72 0.0 0.0 0.00 0.62 0.00 95 1012.2
20260906054516 72 0.0 0.0 0.00 0.62 0.00 95 1012.5
20260906053016 72 0.0 0.0 0.00 0.62 0.00 95 1012.4
20260906051516 72 0.0 0.0 0.00 0.62 0.00 95 1012.5
20260906050016 72 0.0 0.0 0.00 0.62 0.00 95 1012.6
20260906044516 72 0.0 0.0 0.00 0.62 0.00 95 1012.7
20260906043016 72 0.0 0.0 0.00 0.62 0.00 94 1012.8
20260906041516 72 0.0 0.0 0.00 0.62 0.00 94 1012.7
20260906040016 72 0.0 0.0 0.00 0.62 0.62 94 1012.5
20260906034537 72 0.0 0.0 0.00 0.62 0.62 94 1012.7
20260906033017 72 0.0 0.0 0.00 0.62 0.62 93 1012.7
20260906031537 72 0.0 0.0 0.00 0.62 0.62 94 1012.5
20260906030017 72 0.0 0.0 0.00 0.62 0.62 93 1012.8
20260906024517 73 0.0 0.0 0.00 0.62 0.62 93 1012.6
20260906023017 73 0.0 0.0 0.00 0.62 0.62 93 1012.7
20260906021537 73 0.0 0.0 0.00 0.62 0.62 93 1012.6
20260906020016 73 0.0 0.0 0.00 0.62 0.62 93 1012.6
20260906014516 74 0.0 0.0 0.00 0.62 0.62 93 1012.5
20260906013016 74 0.0 0.0 0.00 0.62 0.62 93 1012.4
20260906011516 74 0.0 0.0 0.00 0.62 0.62 93 1012.3
20260906010016 74 0.0 0.0 0.00 0.62 0.62 93 1012.1
20260906004516 74 0.0 0.0 0.00 0.62 0.62 92 1011.7
20260906003016 74 0.0 1.0 0.00 0.62 0.62 92 1011.5
20260906001557 75 0.0 1.0 0.00 0.62 0.62 91 1011.3
20260906000016 75 0.0 0.0 0.00 0.62 0.62 91 1011.1
20260905234516 75 0.0 0.0 0.00 0.62 0.62 90 1010.9
20260905233036 75 0.0 0.0 0.00 0.62 0.62 90 1010.9
20260905231516 76 0.0 0.0 0.00 0.63 0.62 90 1010.9
20260905230016 76 0.0 0.0 0.00 0.63 0.62 89 1011.3
20260905224516 76 0.0 0.0 0.00 0.63 0.62 89 1011.5
20260905223016 76 0.0 1.0 0.00 0.63 0.62 89 1011.2
20260905221516 76 0.0 0.0 0.00 0.63 0.62 90 1011.2
20260905220016 76 0.0 0.0 0.00 0.63 0.62 89 1010.9
20260905214536 76 0.0 0.0 0.00 0.65 0.62 90 1010.9
20260905213016 76 0.0 1.0 0.00 0.70 0.62 89 1011.0
20260905211516 76 0.0 2.0 0.00 1.35 0.62 89 1011.0
20260905210016 75 0.0 2.0 0.00 1.50 0.62 89 1011.2
20260905204516 75 0.0 2.0 0.00 1.50 0.62 91 1011.1
20260905203016 75 315 1.0 4.0 0.00 1.50 0.62 89 1011.0
20260905201516 75 0.0 2.0 0.00 1.50 0.62 92 1011.0
20260905200016 75 0.0 2.0 0.00 1.50 0.62 94 1011.1
20260905194516 75 0.0 3.0 0.00 1.50 0.62 94 1011.3
20260905193015 75 0.0 1.0 0.00 1.50 0.62 94 1011.5
20260905191516 74 0.0 1.0 0.00 1.50 0.62 94 1011.9
20260905190016 74 0.0 1.0 0.00 1.50 0.62 93 1012.1
20260905184515 74 0.0 2.0 0.00 1.50 0.62 93 1012.2
20260905183016 74 0.0 1.0 0.00 1.50 0.62 93 1011.9
20260905181516 74 0.0 1.0 0.00 1.50 0.62 93 1011.8
20260905180016 74 203 1.0 2.0 0.01 1.50 0.62 93 1011.6
20260905174535 74 0.0 2.0 0.03 1.50 0.62 93 1011.9
20260905173015 74 0.0 1.0 0.53 1.50 0.62 92 1012.0
20260905171516 74 0.0 1.0 0.62 1.50 0.62 90 1012.3
20260905170036 75 180 1.0 6.0 0.61 1.49 0.61 88 1013.0
20260905164515 77 293 2.0 9.0 0.59 1.47 0.59 87 1013.8
20260905163015 79 315 1.0 4.0 0.09 0.97 0.09 86 1014.1
20260905161515 80 293 1.0 4.0 0.00 0.88 0.00 83 1013.0
20260905160015 80 0.0 2.0 0.00 0.88 0.00 84 1012.5
20260905154515 80 0.0 2.0 0.00 0.88 0.00 85 1012.6
20260905153015 80 0.0 3.0 0.00 0.88 0.00 84 1012.3
20260905151515 79 0.0 2.0 0.00 0.88 0.00 84 1012.6
20260905150015 79 293 1.0 3.0 0.00 0.88 0.00 84 1012.7
20260905144515 78 45 1.0 3.0 0.00 0.88 0.00 86 1012.5
20260905143015 77 0 1.0 3.0 0.00 0.88 0.00 92 1012.5
20260905141515 75 45 1.0 5.0 0.00 0.88 0.00 95 1012.5
20260905140017 74 68 1.0 3.0 0.00 0.88 0.00 96 1012.1
20260905134517 73 0.0 0.0 0.00 0.88 0.00 96 1012.1
20260905133017 73 0.0 0.0 0.00 0.88 0.00 96 1012.2
20260905131517 73 0.0 0.0 0.00 0.88 0.00 96 1012.1
20260905130017 72 0.0 0.0 0.00 0.88 0.00 96 1011.8
20260905124517 72 0.0 0.0 0.00 0.88 0.00 96 1011.8
20260905123017 71 0.0 0.0 0.00 0.88 0.00 96 1012.2
20260905121517 70 0.0 0.0 0.00 0.88 0.00 96 1012.0
20260905120017 69 0.0 0.0 0.00 0.88 0.00 96 1012.0
20260905114517 69 0.0 0.0 0.00 0.88 0.00 95 1012.0
20260905113017 69 0.0 0.0 0.00 0.88 0.00 95 1012.0
20260905111517 69 0.0 0.0 0.00 0.88 0.00 95 1011.7
20260905110016 69 0.0 0.0 0.00 0.88 0.00 95 1011.6
20260905104516 69 0.0 0.0 0.00 0.88 0.00 95 1011.5
20260905103017 69 0.0 0.0 0.00 0.88 0.00 95 1011.4
20260905101517 69 0.0 0.0 0.00 0.88 0.00 95 1011.2
20260905100017 70 0.0 0.0 0.00 0.88 0.00 95 1011.2